This is the latest recevied weather packets stored in our database for station/object YO8PIC-13. If no packets are shown the sender has not sent any weather packets the latest 10 day(s).
| Time | Temp. | Humidity | Pressure | Rain* | Wind** | Luminosity | Snow |
|---|---|---|---|---|---|---|---|
| 1788558492 | 20° C | 61% | 1017.2 hPa | - | - | - | - |
| 1788557890 | 20° C | 60% | 1017.2 hPa | - | - | - | - |
| 1788557291 | 20° C | 58% | 1017.3 hPa | - | - | - | - |
| 1788556690 | 20° C | 58% | 1017.4 hPa | - | - | - | - |
| 1788556090 | 20° C | 58% | 1017.2 hPa | - | - | - | - |
| 1788555490 | 20.56° C | 56% | 1017.1 hPa | - | - | - | - |
| 1788554890 | 21.11° C | 56% | 1017.1 hPa | - | - | - | - |
| 1788554291 | 21.11° C | 53% | 1017.1 hPa | - | - | - | - |
| 1788553691 | 21.11° C | 54% | 1017 hPa | - | - | - | - |
| 1788553090 | 21.67° C | 54% | 1017.1 hPa | - | - | - | - |
| 1788552491 | 21.67° C | 53% | 1016.9 hPa | - | - | - | - |
| 1788551890 | 21.67° C | 52% | 1016.8 hPa | - | - | - | - |
| 1788551291 | 21.67° C | 52% | 1016.9 hPa | - | - | - | - |
| 1788550690 | 21.67° C | 52% | 1016.8 hPa | - | - | - | - |
| 1788550090 | 22.22° C | 50% | 1016.9 hPa | - | - | - | - |
| 1788549490 | 22.78° C | 50% | 1017 hPa | - | - | - | - |
| 1788548890 | 22.22° C | 50% | 1016.9 hPa | - | - | - | - |
| 1788548291 | 22.78° C | 50% | 1017.1 hPa | - | - | - | - |
| 1788547690 | 22.78° C | 49% | 1017.1 hPa | - | - | - | - |
| 1788547093 | 22.78° C | 48% | 1017.2 hPa | - | - | - | - |
| 1788546490 | 23.33° C | 47% | 1017.1 hPa | - | - | - | - |
| 1788545892 | 23.33° C | 46% | 1017 hPa | - | - | - | - |
| 1788545290 | 23.33° C | 45% | 1017 hPa | - | - | - | - |
| 1788544692 | 23.89° C | 45% | 1016.9 hPa | - | - | - | - |
| 1788544091 | 23.89° C | 44% | 1016.9 hPa | - | - | - | - |
* Rain since midnight (hover to see other rain measurements)
** Current wind speed in m/s (hover to see current wind gust speed)